AAL972 NFFN-PHNL

Flight info

Callsign AAL972
Flight time N/A
Altitude 37000
Route ALPHA KABAR A579 CUFFY/N0476F390 A579 CARRP OPACA4
Aircraft B77W/H-SDE1E2E3FGHIJ2J3J4J5M1RWXY/LB1D1

Departure

Time 2026-05-07 18:35
Airport Nadi International Airport (NFFN)

Arrival

Time N/A
Airport Daniel K. Inouye International Airport (PHNL)
Time Latitude Longitude Altitude Speed Heading
2026-05-07 17:55 -17.75197 177.45013 58 ft 0 kts 104°
2026-05-07 18:25 -17.75194 177.45002 50 ft 4 kts 101°
2026-05-07 18:25 -17.75191 177.44974 53 ft 4 kts 86°
2026-05-07 18:25 -17.75197 177.44948 50 ft 4 kts 53°
2026-05-07 18:26 -17.75212 177.44936 50 ft 0 kts 12°
2026-05-07 18:29 -17.75210 177.44936 50 ft 2 kts 12°
2026-05-07 18:29 -17.75187 177.44941 50 ft 0 kts 12°
2026-05-07 18:30 -17.75186 177.44941 50 ft 1 kts 12°
2026-05-07 18:30 -17.75163 177.44947 52 ft 6 kts 15°
2026-05-07 18:31 -17.75104 177.44963 54 ft 11 kts 10°
2026-05-07 18:31 -17.75047 177.44929 53 ft 8 kts 295°
2026-05-07 18:31 -17.75038 177.44899 53 ft 0 kts 285°
2026-05-07 18:32 -17.75038 177.44898 54 ft 0 kts 285°
2026-05-07 18:32 -17.75038 177.44897 54 ft 1 kts 285°
2026-05-07 18:32 -17.75026 177.44854 53 ft 12 kts 284°
2026-05-07 18:33 -17.75002 177.44770 52 ft 9 kts 289°
2026-05-07 18:33 -17.75028 177.44722 52 ft 8 kts 219°
2026-05-07 18:33 -17.75043 177.44710 54 ft 0 kts 218°
2026-05-07 18:34 -17.75105 177.44660 53 ft 29 kts 218°
2026-05-07 18:34 -17.75485 177.44353 49 ft 109 kts 217°
2026-05-07 18:35 -17.76282 177.43712 51 ft 176 kts 217°
2026-05-07 18:35 -17.77312 177.42865 563 ft 184 kts 217°
2026-05-07 18:35 -17.78338 177.42033 1314 ft 193 kts 215°
2026-05-07 18:35 -17.79450 177.41141 1768 ft 212 kts 214°
2026-05-07 18:36 -17.80698 177.40142 2089 ft 239 kts 214°
2026-05-07 18:36 -17.82064 177.39036 2662 ft 254 kts 215°
2026-05-07 18:36 -17.83311 177.37689 3272 ft 269 kts 242°
2026-05-07 18:36 -17.83657 177.35787 4225 ft 267 kts 278°
2026-05-07 18:37 -17.82934 177.34021 5176 ft 269 kts 309°
2026-05-07 18:37 -17.81481 177.32810 6108 ft 269 kts 333°
2026-05-07 18:37 -17.79674 177.32297 6946 ft 275 kts 354°
2026-05-07 18:37 -17.77738 177.32518 7535 ft 289 kts 18°
2026-05-07 18:38 -17.75913 177.33479 8175 ft 296 kts 30°
2026-05-07 18:38 -17.74145 177.34592 8986 ft 298 kts 31°
2026-05-07 18:38 -17.72348 177.35689 9780 ft 302 kts 30°
2026-05-07 18:38 -17.70482 177.36765 10391 ft 312 kts 29°
2026-05-07 18:39 -17.68497 177.37886 10627 ft 338 kts 29°
2026-05-07 18:39 -17.66345 177.39096 10824 ft 364 kts 28°
2026-05-07 18:39 -17.64073 177.40428 11229 ft 382 kts 31°
2026-05-07 18:39 -17.61784 177.41921 11867 ft 393 kts 33°
2026-05-07 18:40 -17.59466 177.43495 12664 ft 400 kts 33°
2026-05-07 18:40 -17.57147 177.45083 13513 ft 406 kts 33°
2026-05-07 18:40 -17.54725 177.46737 14267 ft 414 kts 33°
2026-05-07 18:40 -17.52325 177.48366 14981 ft 420 kts 33°
2026-05-07 18:41 -17.49820 177.50057 15738 ft 426 kts 33°
2026-05-07 18:41 -17.47338 177.51725 16463 ft 432 kts 33°
2026-05-07 18:41 -17.44755 177.53456 17189 ft 439 kts 33°
2026-05-07 18:41 -17.42196 177.55168 17895 ft 445 kts 33°
2026-05-07 18:42 -17.39531 177.56950 18589 ft 452 kts 33°
2026-05-07 18:42 -17.36868 177.58729 19226 ft 457 kts 33°
2026-05-07 18:42 -17.34211 177.60504 19882 ft 462 kts 33°
2026-05-07 18:42 -17.31488 177.62322 20525 ft 467 kts 33°
2026-05-07 18:43 -17.28733 177.64161 21153 ft 473 kts 33°
2026-05-07 18:43 -17.25942 177.66023 21793 ft 478 kts 33°
2026-05-07 18:43 -17.23121 177.67905 22409 ft 484 kts 33°
2026-05-07 18:43 -17.20266 177.69809 23036 ft 489 kts 33°
2026-05-07 18:44 -17.17383 177.71731 23625 ft 494 kts 33°
2026-05-07 18:44 -17.14464 177.73676 24112 ft 500 kts 32°
2026-05-07 18:44 -17.11525 177.75634 24613 ft 504 kts 32°
2026-05-07 18:44 -17.08552 177.77613 25151 ft 508 kts 32°
2026-05-07 18:45 -17.05565 177.79601 25683 ft 511 kts 32°
2026-05-07 18:45 -17.02555 177.81604 26190 ft 515 kts 32°
2026-05-07 18:45 -16.99531 177.83615 26743 ft 517 kts 31°
2026-05-07 18:45 -16.96481 177.85642 27239 ft 521 kts 31°
2026-05-07 18:46 -16.93406 177.87686 27697 ft 526 kts 31°
2026-05-07 18:46 -16.90312 177.89741 28145 ft 530 kts 31°
2026-05-07 18:46 -16.87187 177.91816 28602 ft 534 kts 31°
2026-05-07 18:46 -16.84045 177.93901 29087 ft 537 kts 31°
2026-05-07 18:47 -16.80880 177.96001 29542 ft 540 kts 31°
2026-05-07 18:47 -16.77702 177.98109 29971 ft 544 kts 31°
2026-05-07 18:47 -16.74501 178.00232 30346 ft 547 kts 30°
2026-05-07 18:47 -16.71282 178.02366 30716 ft 548 kts 30°
2026-05-07 18:48 -16.68060 178.04500 31109 ft 549 kts 31°
2026-05-07 18:48 -16.64847 178.06629 31685 ft 545 kts 31°
2026-05-07 18:48 -16.61655 178.08743 32248 ft 542 kts 30°
2026-05-07 18:48 -16.58470 178.10851 32691 ft 543 kts 30°
2026-05-07 18:49 -16.55273 178.12965 33106 ft 544 kts 30°
2026-05-07 18:49 -16.52085 178.15073 33565 ft 543 kts 30°
2026-05-07 18:49 -16.48900 178.17178 34056 ft 541 kts 30°
2026-05-07 18:49 -16.45726 178.19275 34486 ft 539 kts 30°
2026-05-07 18:50 -16.42571 178.21359 34948 ft 536 kts 30°
2026-05-07 18:50 -16.39429 178.23434 35376 ft 534 kts 30°
2026-05-07 18:50 -16.36292 178.25504 35791 ft 532 kts 30°
2026-05-07 18:50 -16.33172 178.27562 36190 ft 530 kts 30°
2026-05-07 18:51 -16.30108 178.29583 36695 ft 526 kts 30°
2026-05-07 18:51 -16.27024 178.31617 37015 ft 527 kts 30°
2026-05-07 18:51 -16.23902 178.33671 36966 ft 534 kts 30°
2026-05-07 18:52 -16.17545 178.37831 36977 ft 545 kts 30°
2026-05-07 18:52 -16.11101 178.42031 36973 ft 548 kts 30°
2026-05-07 18:53 -16.04639 178.46246 36961 ft 548 kts 30°
2026-05-07 18:53 -15.98198 178.50450 36944 ft 545 kts 31°
2026-05-07 18:53 -15.95185 178.52823 36941 ft 542 kts 43°
2026-05-07 18:54 -15.92632 178.55666 36975 ft 537 kts 46°
2026-05-07 18:54 -15.89899 178.58314 36952 ft 537 kts 34°
2026-05-07 18:54 -15.86801 178.60461 36995 ft 536 kts 29°
2026-05-07 18:55 -15.80320 178.64363 36963 ft 539 kts 27°
2026-05-07 18:55 -15.73841 178.68331 36965 ft 542 kts 29°
2026-05-07 18:56 -15.67419 178.72468 36964 ft 543 kts 30°
2026-05-07 18:56 -15.61030 178.76647 36948 ft 539 kts 30°
2026-05-07 18:57 -15.54726 178.80754 36950 ft 533 kts 30°
2026-05-07 18:57 -15.48444 178.84826 36954 ft 532 kts 30°
2026-05-07 18:58 -15.42157 178.88896 36951 ft 533 kts 30°
2026-05-07 18:58 -15.35869 178.92966 36951 ft 533 kts 30°
2026-05-07 18:59 -15.29564 178.97046 36959 ft 534 kts 30°
2026-05-07 18:59 -15.23303 179.01101 36961 ft 535 kts 30°
2026-05-07 19:00 -15.16997 179.05195 36955 ft 535 kts 30°
2026-05-07 19:00 -15.10693 179.09289 36955 ft 535 kts 30°
2026-05-07 19:01 -15.04381 179.13384 36952 ft 535 kts 30°
2026-05-07 19:01 -14.98070 179.17474 36954 ft 535 kts 30°
2026-05-07 19:02 -14.91760 179.21560 36935 ft 535 kts 30°
2026-05-07 19:02 -14.85463 179.25635 36952 ft 534 kts 30°
2026-05-07 19:03 -14.79172 179.29702 36949 ft 533 kts 30°
2026-05-07 19:03 -14.72892 179.33761 36952 ft 532 kts 30°
2026-05-07 19:04 -14.66622 179.37810 36951 ft 531 kts 30°
2026-05-07 19:04 -14.60351 179.41856 36950 ft 531 kts 30°
2026-05-07 19:05 -14.54085 179.45897 36950 ft 531 kts 30°
2026-05-07 19:05 -14.47818 179.49936 36952 ft 531 kts 30°
2026-05-07 19:06 -14.41546 179.53974 36945 ft 531 kts 30°
2026-05-07 19:06 -14.32138 179.60028 36938 ft 532 kts 30°
2026-05-07 19:07 -14.25860 179.64065 36943 ft 532 kts 30°
2026-05-07 19:07 -14.19873 179.67911 36933 ft 532 kts 30°
2026-05-07 19:08 -14.13596 179.71942 36942 ft 531 kts 30°
2026-05-07 19:08 -14.07328 179.75964 36943 ft 530 kts 30°
2026-05-07 19:09 -14.01068 179.79978 36944 ft 530 kts 30°
2026-05-07 19:09 -13.94815 179.83986 36941 ft 529 kts 30°
2026-05-07 19:10 -13.88561 179.87991 36943 ft 529 kts 30°
2026-05-07 19:10 -13.82232 179.92041 36934 ft 528 kts 30°
2026-05-07 19:11 -13.75992 179.96032 36943 ft 527 kts 30°
2026-05-07 19:11 -13.69762 -179.99986 36945 ft 527 kts 30°
2026-05-07 19:12 -13.63540 -179.96011 36942 ft 526 kts 30°
2026-05-07 19:12 -13.57323 -179.92043 36942 ft 526 kts 30°
2026-05-07 19:13 -13.51106 -179.88076 36943 ft 526 kts 30°
2026-05-07 19:13 -13.44900 -179.84119 36938 ft 525 kts 30°
2026-05-07 19:14 -13.38697 -179.80167 36942 ft 524 kts 30°
2026-05-07 19:14 -13.32531 -179.76240 36939 ft 524 kts 30°
2026-05-07 19:15 -13.26332 -179.72295 36940 ft 524 kts 30°
2026-05-07 19:15 -13.20132 -179.68352 36937 ft 524 kts 30°
2026-05-07 19:16 -13.13926 -179.64407 36942 ft 524 kts 30°
2026-05-07 19:16 -13.07770 -179.60496 36942 ft 523 kts 30°
2026-05-07 19:17 -13.01585 -179.56569 36936 ft 522 kts 30°
2026-05-07 19:17 -12.95412 -179.52652 36937 ft 522 kts 30°
2026-05-07 19:18 -12.89236 -179.48736 36932 ft 522 kts 30°
2026-05-07 19:18 -12.83066 -179.44826 36933 ft 521 kts 30°
2026-05-07 19:19 -12.76900 -179.40921 36926 ft 521 kts 30°
2026-05-07 19:19 -12.70731 -179.37016 36932 ft 521 kts 30°
2026-05-07 19:20 -12.64565 -179.33114 36933 ft 520 kts 30°
2026-05-07 19:20 -12.58406 -179.29220 36937 ft 521 kts 30°
2026-05-07 19:21 -12.52174 -179.25284 36943 ft 532 kts 30°
2026-05-07 19:21 -12.45832 -179.21279 36940 ft 539 kts 30°
2026-05-07 19:22 -12.39440 -179.17244 36929 ft 540 kts 30°
2026-05-07 19:22 -12.33039 -179.13205 36930 ft 540 kts 30°
2026-05-07 19:23 -12.26657 -179.09180 36931 ft 539 kts 30°
2026-05-07 19:23 -12.20281 -179.05163 36930 ft 537 kts 30°
2026-05-07 19:24 -12.13983 -179.01196 36929 ft 535 kts 30°
2026-05-07 19:24 -12.07654 -178.97213 36931 ft 533 kts 30°
2026-05-07 19:25 -12.01410 -178.93285 36922 ft 532 kts 30°
2026-05-07 19:25 -11.95100 -178.89318 36932 ft 532 kts 30°
2026-05-07 19:26 -11.88798 -178.85359 36937 ft 532 kts 30°
2026-05-07 19:26 -11.82544 -178.81431 36934 ft 532 kts 30°
2026-05-07 19:27 -11.76238 -178.77474 36931 ft 532 kts 30°
2026-05-07 19:27 -11.69930 -178.73517 36929 ft 532 kts 30°
2026-05-07 19:28 -11.63622 -178.69562 36925 ft 532 kts 30°
2026-05-07 19:28 -11.57313 -178.65608 36933 ft 532 kts 30°
2026-05-07 19:29 -11.50998 -178.61654 36929 ft 533 kts 30°
2026-05-07 19:29 -11.44683 -178.57700 36930 ft 533 kts 30°
2026-05-07 19:30 -11.38360 -178.53745 36931 ft 533 kts 30°
2026-05-07 19:30 -11.33105 -178.50459 36932 ft 533 kts 30°
2026-05-07 19:31 -11.26777 -178.46503 36927 ft 533 kts 30°
2026-05-07 19:31 -11.20454 -178.42553 36932 ft 533 kts 30°
2026-05-07 19:32 -11.14123 -178.38600 36931 ft 533 kts 30°
2026-05-07 19:32 -11.07805 -178.34658 36932 ft 533 kts 30°
2026-05-07 19:33 -11.01481 -178.30713 36932 ft 533 kts 30°
2026-05-07 19:33 -10.95157 -178.26770 36931 ft 533 kts 30°
2026-05-07 19:34 -10.88840 -178.22835 36931 ft 533 kts 30°
2026-05-07 19:34 -10.82504 -178.18888 36931 ft 533 kts 30°
2026-05-07 19:35 -10.76226 -178.14980 36931 ft 533 kts 30°
2026-05-07 19:35 -10.69906 -178.11048 36931 ft 533 kts 30°
2026-05-07 19:36 -10.63584 -178.07116 36933 ft 532 kts 29°
2026-05-07 19:36 -10.57264 -178.03188 36930 ft 532 kts 29°
2026-05-07 19:37 -10.50944 -177.99262 36932 ft 532 kts 29°
2026-05-07 19:37 -10.44612 -177.95330 36936 ft 532 kts 29°
2026-05-07 19:38 -10.38304 -177.91415 36932 ft 532 kts 29°
2026-05-07 19:38 -10.32007 -177.87508 36931 ft 533 kts 29°
2026-05-07 19:39 -10.25678 -177.83584 36932 ft 533 kts 29°
2026-05-07 19:39 -10.19352 -177.79663 36923 ft 533 kts 29°
2026-05-07 19:40 -10.13019 -177.75739 36931 ft 533 kts 29°
2026-05-07 19:40 -10.06690 -177.71819 36930 ft 533 kts 29°
2026-05-07 19:41 -10.00367 -177.67905 36928 ft 533 kts 29°
2026-05-07 19:41 -9.94039 -177.63995 36928 ft 532 kts 29°
2026-05-07 19:42 -9.87810 -177.60146 36911 ft 511 kts 28°
2026-05-07 19:42 -9.81831 -177.56452 36913 ft 501 kts 28°
2026-05-07 19:43 -9.75900 -177.52794 36919 ft 497 kts 28°
2026-05-07 19:43 -9.70011 -177.49163 36921 ft 494 kts 28°
2026-05-07 19:44 -9.64142 -177.45544 36929 ft 493 kts 28°
2026-05-07 19:44 -9.58278 -177.41930 36934 ft 494 kts 28°
2026-05-07 19:45 -9.52402 -177.38310 36934 ft 496 kts 28°
2026-05-07 19:45 -9.46531 -177.34694 36936 ft 498 kts 28°
2026-05-07 19:46 -9.40599 -177.31041 36931 ft 498 kts 28°
2026-05-07 19:46 -9.34673 -177.27393 36925 ft 498 kts 28°
2026-05-07 19:47 -9.28740 -177.23743 36926 ft 498 kts 28°
2026-05-07 19:47 -9.22821 -177.20103 36927 ft 497 kts 28°
2026-05-07 19:48 -9.16908 -177.16468 36932 ft 497 kts 28°
2026-05-07 19:48 -9.10998 -177.12836 36930 ft 496 kts 28°
2026-05-07 19:49 -9.05106 -177.09217 36936 ft 495 kts 28°
2026-05-07 19:49 -8.99214 -177.05599 36931 ft 495 kts 28°
2026-05-07 19:50 -8.93359 -177.02005 36932 ft 494 kts 28°
2026-05-07 19:50 -8.87489 -176.98404 36931 ft 493 kts 28°
2026-05-07 19:51 -8.81606 -176.94796 36933 ft 493 kts 28°
2026-05-07 19:51 -8.75741 -176.91200 36928 ft 493 kts 28°
2026-05-07 19:52 -8.69872 -176.87604 36941 ft 493 kts 28°
2026-05-07 19:52 -8.64010 -176.84012 36922 ft 493 kts 28°
2026-05-07 19:53 -8.58190 -176.80448 36938 ft 492 kts 28°
2026-05-07 19:53 -8.52334 -176.76863 36939 ft 492 kts 28°
2026-05-07 19:54 -8.46481 -176.73281 36925 ft 492 kts 28°
2026-05-07 19:54 -8.40630 -176.69702 36925 ft 492 kts 28°
2026-05-07 19:55 -8.34783 -176.66127 36926 ft 492 kts 28°
2026-05-07 19:55 -8.28931 -176.62549 36933 ft 491 kts 28°
2026-05-07 19:56 -8.23078 -176.58973 36920 ft 492 kts 28°
2026-05-07 19:56 -8.17230 -176.55400 36932 ft 492 kts 28°
2026-05-07 19:57 -8.11378 -176.51827 36932 ft 491 kts 28°
2026-05-07 19:57 -8.05526 -176.48255 36928 ft 492 kts 28°
2026-05-07 19:58 -7.99673 -176.44683 36931 ft 492 kts 28°
2026-05-07 19:58 -7.93814 -176.41109 36937 ft 491 kts 28°
2026-05-07 19:59 -7.87966 -176.37542 36930 ft 491 kts 28°
2026-05-07 19:59 -7.82129 -176.33984 36925 ft 490 kts 28°
2026-05-07 20:00 -7.76304 -176.30433 36930 ft 489 kts 28°
2026-05-07 20:00 -7.70486 -176.26889 36929 ft 488 kts 28°
2026-05-07 20:01 -7.64669 -176.23347 36927 ft 488 kts 28°
2026-05-07 20:01 -7.58859 -176.19810 36926 ft 488 kts 28°
2026-05-07 20:02 -7.53046 -176.16272 36925 ft 488 kts 29°
2026-05-07 20:02 -7.47236 -176.12736 36930 ft 488 kts 29°
2026-05-07 20:03 -7.41424 -176.09201 36926 ft 488 kts 29°
2026-05-07 20:03 -7.35611 -176.05667 36927 ft 488 kts 29°
2026-05-07 20:04 -7.29828 -176.02151 36929 ft 489 kts 29°
2026-05-07 20:04 -7.24008 -175.98615 36927 ft 489 kts 29°
2026-05-07 20:05 -7.18184 -175.95077 36925 ft 489 kts 29°
2026-05-07 20:05 -7.12357 -175.91538 36926 ft 489 kts 29°
2026-05-07 20:06 -7.06532 -175.88001 36928 ft 489 kts 29°
2026-05-07 20:06 -7.00705 -175.84465 36929 ft 489 kts 29°
2026-05-07 20:07 -6.94881 -175.80930 36926 ft 489 kts 29°
2026-05-07 20:07 -6.89057 -175.77397 36925 ft 489 kts 29°
2026-05-07 20:08 -6.83232 -175.73866 36929 ft 489 kts 29°
2026-05-07 20:08 -6.77411 -175.70336 36931 ft 488 kts 29°
2026-05-07 20:09 -6.71602 -175.66816 36927 ft 487 kts 29°
2026-05-07 20:10 -6.62925 -175.61558 36928 ft 486 kts 29°
2026-05-07 20:10 -6.57145 -175.58058 36927 ft 486 kts 29°
2026-05-07 20:11 -6.51355 -175.54552 36927 ft 485 kts 29°
2026-05-07 20:11 -6.45566 -175.51048 36925 ft 485 kts 29°
2026-05-07 20:12 -6.39786 -175.47550 36927 ft 485 kts 29°
2026-05-07 20:12 -6.34015 -175.44059 36924 ft 484 kts 29°
2026-05-07 20:13 -6.28249 -175.40571 36921 ft 484 kts 29°
2026-05-07 20:13 -6.22476 -175.37081 36928 ft 484 kts 29°
2026-05-07 20:14 -6.16707 -175.33593 36930 ft 485 kts 29°
2026-05-07 20:14 -6.10925 -175.30099 36929 ft 485 kts 29°
2026-05-07 20:15 -6.05139 -175.26603 36925 ft 485 kts 29°
2026-05-07 20:15 -5.99353 -175.23108 36925 ft 485 kts 29°
2026-05-07 20:16 -5.93568 -175.19614 36929 ft 484 kts 30°
2026-05-07 20:16 -5.87786 -175.16123 36927 ft 484 kts 30°
2026-05-07 20:17 -5.82060 -175.12666 36925 ft 483 kts 29°
2026-05-07 20:17 -5.76289 -175.09184 36926 ft 483 kts 29°
2026-05-07 20:18 -5.70527 -175.05708 36928 ft 483 kts 29°
2026-05-07 20:18 -5.64768 -175.02234 36925 ft 483 kts 30°
2026-05-07 20:19 -5.59004 -174.98758 36932 ft 484 kts 30°
2026-05-07 20:19 -5.54205 -174.95865 36930 ft 485 kts 30°
2026-05-07 20:20 -5.48414 -174.92374 36927 ft 485 kts 29°
2026-05-07 20:20 -5.42621 -174.88883 36927 ft 486 kts 30°